Regional Weather Roundup
Issued by NWS

Home | Current Version | Previous Version | Text Only | Print | Product List | Glossary Off
Versions: 1 2 3 4 5 6 7 8 9 10 11 12 13 14 15 16 17 18 19 20 21 22 23 24 25 26 27 28 29 30 31 32 33 34 35 36 37 38 39 40 41 42 43 44 45 46 47 48 49 50

000
ASUS43 KDMX 201507
RWRIA

WEATHER ROUNDUP FOR IOWA
NATIONAL WEATHER SERVICE DES MOINES IA
900 AM CST SAT DEC 20 2014

NOTE: "FAIR" INDICATES FEW OR NO CLOUDS BELOW 12,000 FEET WITH NO
SIGNIFICANT WEATHER AND/OR OBSTRUCTIONS TO VISIBILITY.

* - THESE STATIONS ARE NOT NWS STATIONS...THUS NOT UNDER NWS
QUALITY CONTROL.  THEY ALSO DO NOT REPORT WEATHER SUCH
AS PRECIPITATION OR FOG.

IAZ001>003-012>014-020>022-031>034-043>046-201600-
   NORTHWEST IOWA

CITY           SKY/WX    TMP DP  RH WIND       PRES   REMARKS
CARROLL *      CLOUDY    30  30 100 SE9       30.13S FOG     WCI  22
CHEROKEE *     CLOUDY    30  30 100 S7        30.12R FOG     WCI  23
DENISON *      CLOUDY    30  30 100 S8        30.10S FOG     WCI  23
LE MARS *      CLOUDY    32  32 100 S7        30.11R FOG     WCI  26
ORANGE CITY *  CLOUDY    32  30  93 S6        30.09S FOG     WCI  26
SHELDON *      CLOUDY    30  30 100 S8        30.08S FOG     WCI  23
SIOUX CITY     CLOUDY    32  30  92 S6        30.11S FOG     WCI  26
SPENCER        CLOUDY    30  28  92 S9        30.11S FOG     WCI  22
STORM LAKE *   FOG       28  28 100 S9        30.11S VSB 1   WCI  20
$$

IAZ055>058-069>071-079>083-090>094-201600-
   SOUTHWEST IOWA

CITY           SKY/WX    TMP DP  RH WIND       PRES   REMARKS
ATLANTIC *     CLOUDY    32  32 100 S6        30.13S FOG     WCI  26
AUDUBON *      CLOUDY    30  27  86 S7        30.14R HAZE    WCI  23
CLARINDA *     CLOUDY    32  32 100 S7        30.16S WCI  26
COUNCIL BLFS * FOG       32  32 100 S7        30.11R VSB 3/4 WCI  26
CRESTON *      CLOUDY    30  30 100 S9        30.15R FOG     WCI  22
HARLAN  *      CLOUDY    32  32 100 S6        30.16R FOG     WCI  26
LAMONI         CLOUDY    31  30  96 S8        30.16S FOG     WCI  23
RED OAK *      CLOUDY    32  32 100 S7        30.14S FOG     WCI  26
SHENANDOAH *   CLOUDY    32  32 100 SE9       30.14S FOG     WCI  24
$$

IAZ047>049-059>061-072>074-084-201600-
   CENTRAL IOWA

CITY           SKY/WX    TMP DP  RH WIND       PRES   REMARKS
AMES           CLOUDY    30  27  88 CALM      30.17S
ANKENY *       CLOUDY    32  30  93 SE3       30.18S
CHARITON *     CLOUDY    32  32 100 S6        30.17S FOG     WCI  26
DES MOINES     CLOUDY    32  29  88 SE5       30.18S FOG     WCI  27
GRINNELL*      FOG       30  30 100 SE6       30.18F VSB 1   WCI  24
KNOXVILLE *    FOG       32  32 100 S5        30.17S VSB 3/4 WCI  27
MARSHALLTOWN   CLOUDY    30  29  96 S5        30.17S FOG     WCI  25
PELLA *        FOG       32  32 100 SE5       30.20S VSB 3/4 WCI  27
PERRY *        CLOUDY    32  32 100 S6        30.16S FOG     WCI  26
$$

IAZ004>006-015-016-023>025-035-036-201600-
   NORTH CENTRAL IOWA

CITY           SKY/WX    TMP DP  RH WIND       PRES   REMARKS
ALGONA *       CLOUDY    30  28  93 S8        30.14R WCI  23
CLARION *      CLOUDY    30  30 100 S7        30.15S FOG     WCI  23
ESTHERVILLE    CLOUDY    28  26  92 S10       30.11S WCI  19
FORT DODGE *   CLOUDY    30  25  80 SE5       30.15S WCI  25
MASON CITY     FOG       29  28  96 SE9       30.17S VSB 3/4 WCI  20
FOREST CITY *  CLOUDY    32  30  93 S6        30.14F FOG     WCI  26
IOWA FALLS *   CLOUDY    30  30 100 SE7       30.17S FOG     WCI  23
$$

IAZ007>011-017>019-026>030-037>042-050>054-066-201600-
   NORTHEAST IOWA

CITY           SKY/WX    TMP DP  RH WIND       PRES   REMARKS
CEDAR RAPIDS   CLOUDY    30  28  92 SE6       30.21R FOG     WCI  24
CHARLES CITY * FOG       28  28 100 SE7       30.18S VSB 1   WCI  21
CLINTON *      CLOUDY    28  25  86 E7        30.28S WCI  21
DECORAH *      CLOUDY    28  27  93 S6        30.18S FOG     WCI  22
DUBUQUE        CLOUDY    27  24  89 SE7       30.22S FOG     WCI  19
MONTICELLO *   CLOUDY    28  28 100 SE7       30.22S WCI  21
OELWEIN *      CLOUDY    28  28 100 SE8       30.20S FOG     WCI  20
WATERLOO       CLOUDY    30  29  96 S9        30.19S FOG     WCI  22
$$

IAZ064-065-067-068-078-201600-
   EAST CENTRAL IOWA

CITY           SKY/WX    TMP DP  RH WIND       PRES   REMARKS
DAVENPORT      CLOUDY    30  24  78 SE6       30.25R WCI  24
IOWA CITY      CLOUDY    30  28  92 SE7       30.25R FOG     WCI  23
MT. PLEASANT * CLOUDY    32  28  86 S5        30.23S FOG     WCI  27
MUSCATINE *    CLOUDY    32  27  80 VRB5      30.25R WCI  27
QUAD CITIES    CLOUDY    31  25  78 E5        30.25R HAZE    WCI  26
$$

IAZ062-063-075>077-085>089-095>099-201600-
   SOUTHEAST IOWA

CITY           SKY/WX    TMP DP  RH WIND       PRES   REMARKS
BURLINGTON     CLOUDY    32  27  81 SE5       30.23S WCI  27
FAIRFIELD *    CLOUDY    32  28  86 S7        30.22R FOG     WCI  26
FORT MADISON * CLOUDY    34  30  86 S5        30.24R FOG     WCI  30
KEOKUK *       CLOUDY    34  30  86 SE5       30.23R WCI  30
OSKALOOSA *    FOG       32  30  93 SE6       30.21R VSB 1   WCI  26
CENTERVILLE *  FOG       32  32 100 SE3       30.20S VSB 1/2
OTTUMWA        CLOUDY    32  30  92 SE6       30.20S FOG     WCI  26
WASHINGTON *   CLOUDY    32  32 100 S5        30.23R FOG     WCI  27
$$

ABBREVIATIONS USED IN REMARKS
   TC - TEMPERATURES IN CELSIUS
  WCI - WIND CHILL INDEX
   HX - HEAT INDEX
  VSB - VISIBILITY
$$




USA.gov is the U.S. government's official web portal to all federal, state and local government web resources and services.